Location: Borgo
(42.3939°N, 9.2791°E)
Time: 18:48:47
(UTC+00:00)

Cosmos 2026 Rocket - Pass Details

Date: 27 February 2020
Orbit: 938 x 1002 km, 82.9° (Epoch: 05 April)

Event Time Altitude Azimuth Distance (km) Brightness Sun altitude
Rises 19:49:27 0° 349° (N) 3,660 7.4 -30.0°
Reaches altitude 10° 19:51:59 10° 348° (NNW) 2,700 6.6 -30.5°
Maximum altitude 19:58:06 69° 266° (W) 1,011 4.1 -31.5°
Enters shadow 19:58:23 68° 247° (WSW) 1,016 4.1 -31.6°
